IZ5RAC-3 Cerreto Guidi (FI) IT current weather conditions

sailwx.info

Wind from 090

Air temperature 16.7° C
Dewpoint 13.6° C

Last reported at 2019-Sep-16 22:09 UTC.
Time now 2019-Sep-16 22:46 UTC

Location: N 43°43' E 010°51'.
View on Google Maps.

See reports from other nearby stations

  
Tides and Currents Weather Stations Pressure Air Temp Water Temp Dewpoint Dewpoint Depression Visibility Wind Speed Wind Dir Waves Ship Positions
date/time (UTC)wind fromknots sea level pressurealtimeterstation pressurevisibilityair tempwater tempwave heightnotes
2019-Sep-16 22:09 090 16.7
2019-Sep-16 22:04 090 16.7
2019-Sep-16 21:59 090 16.7
2019-Sep-16 21:54 090 16.7
2019-Sep-16 21:49 090 16.7
2019-Sep-16 21:44 090 16.7
2019-Sep-16 21:39 090 16.7
2019-Sep-16 21:34 090 17.2
2019-Sep-16 21:29 090 17.2
2019-Sep-16 21:24 090 17.2
2019-Sep-16 21:19 090 17.2
2019-Sep-16 21:14 090 17.2
2019-Sep-16 21:09 090 17.2
2019-Sep-16 21:04 090 17.8
2019-Sep-16 20:59 090 17.8
2019-Sep-16 20:54 090 17.8
2019-Sep-16 20:49 090 17.8
2019-Sep-16 20:44 090 18.3
2019-Sep-16 20:39 090 18.3
2019-Sep-16 20:34 090 18.3
2019-Sep-16 20:29 090 18.9
2019-Sep-16 20:24 090 18.9
2019-Sep-16 20:19 090 18.9
2019-Sep-16 20:14 090 18.9
2019-Sep-16 20:09 090 19.4
2019-Sep-16 20:04 090 19.4
2019-Sep-16 19:59 090 19.4
2019-Sep-16 19:54 090 19.4
2019-Sep-16 19:49 090 19.4
2019-Sep-16 19:44 090 19.4
2019-Sep-16 19:39 090 19.4
2019-Sep-16 19:34 090 19.4
2019-Sep-16 19:29 090 20.0
2019-Sep-16 19:24 090 20.0
2019-Sep-16 19:19 090 20.0
2019-Sep-16 19:14 090 20.6
2019-Sep-16 19:09 090 20.6
2019-Sep-16 19:04 090 21.1
2019-Sep-16 18:59 090 21.1
2019-Sep-16 18:54 090 21.1
2019-Sep-16 18:49 090 21.7
2019-Sep-16 18:44 090 21.7
2019-Sep-16 18:39 090 21.7
2019-Sep-16 18:34 090 21.7
2019-Sep-16 18:29 090 22.2
2019-Sep-16 18:24 090 22.2
2019-Sep-16 18:19 067 22.2
2019-Sep-16 18:14 067 22.2
2019-Sep-16 18:09 067 22.2
2019-Sep-16 18:04 067 22.2
2019-Sep-16 17:59 067 22.2
2019-Sep-16 17:54 067 22.8
2019-Sep-16 17:49 067 22.8
2019-Sep-16 17:44 067 22.8
2019-Sep-16 17:39 067 22.8
2019-Sep-16 17:34 067 23.3
2019-Sep-16 17:29 067 23.9
2019-Sep-16 17:24 067 23.9
2019-Sep-16 17:19 067 24.4
2019-Sep-16 17:14 067 25.6
2019-Sep-16 17:09 067 25.6
2019-Sep-16 17:04 067 25.6
2019-Sep-16 16:59 067 25.6
2019-Sep-16 16:54 067 26.1
2019-Sep-16 16:49 067 26.7
2019-Sep-16 16:44 067 26.7
2019-Sep-16 16:39 067 27.2
2019-Sep-16 16:34 067 27.8
2019-Sep-16 16:29 067 27.8
2019-Sep-16 16:24 067 1 gusting 1 28.3
2019-Sep-16 16:19 112 29.4
2019-Sep-16 16:14 067 29.4
2019-Sep-16 16:09 090 30.0
2019-Sep-16 16:04 067 1 gusting 1 30.0
2019-Sep-16 15:59 090 30.0
2019-Sep-16 15:54 090 30.6
2019-Sep-16 15:49 045 31.1
2019-Sep-16 15:44 045 31.1
2019-Sep-16 15:39 067 31.1
2019-Sep-16 15:34 045 1 gusting 1 31.7
2019-Sep-16 15:29 090 31.7
2019-Sep-16 15:24 090 32.2
2019-Sep-16 15:19 022 3 gusting 3 32.2
2019-Sep-16 15:14 045 32.8
2019-Sep-16 15:09 315 32.8
2019-Sep-16 15:04 045 1 gusting 1 33.3
2019-Sep-16 14:59 090 33.3
2019-Sep-16 14:54 090 33.9
2019-Sep-16 14:49 067 1 gusting 1 33.9
2019-Sep-16 14:44 045 33.9
2019-Sep-16 14:39 090 34.4
2019-Sep-16 14:34 090 34.4
2019-Sep-16 14:29 045 35.0
2019-Sep-16 14:24 067 35.6
2019-Sep-16 14:19 045 35.6
2019-Sep-16 14:14 112 0 gusting 0 36.1
2019-Sep-16 14:09 090 36.1
2019-Sep-16 14:04 045 36.1
2019-Sep-16 13:59 090 1 gusting 1 36.7
2019-Sep-16 13:54 067 36.7
2019-Sep-16 13:49 067 37.2
2019-Sep-16 13:44 090 37.2
2019-Sep-16 13:39 270 37.2
2019-Sep-16 13:34 270 37.2
2019-Sep-16 13:29 270 37.2
2019-Sep-16 13:24 090 3 gusting 3 36.7
2019-Sep-16 13:19 022 36.7
2019-Sep-16 13:14 067 36.7
2019-Sep-16 13:09 315 36.7
2019-Sep-16 13:04 067 36.7
2019-Sep-16 12:59 022 3 gusting 3 36.7
2019-Sep-16 12:54 022 3 gusting 3 36.7
2019-Sep-16 12:49 045 36.1
2019-Sep-16 12:44 045 36.1
2019-Sep-16 12:39 090 36.1
2019-Sep-16 12:34 045 36.1
2019-Sep-16 12:29 045 1 gusting 1 36.1
2019-Sep-16 12:24 112 35.6